Location: Killam
(52.7910°N, 111.8608°W)
Time: 06:41:32
(UTC+00:00)

AO-73 - Pass Details

Date: 16 March 2026
Orbit: 514 x 567 km, 97.8° (Epoch: 14 April)

Event Time Altitude Azimuth Distance (km) Brightness Sun altitude
Rises 10:21:01 0° 26° (NNE) 2,674 ? -28.5°
Maximum altitude 10:26:25 19° 92° (E) 1,274 ? -27.9°
Enters shadow 10:27:16 18° 110° (ESE) 1,324 ? -27.8°
